Flag for U.S.A. Weather past 2 weeks in Fresno, California, U.S.A.

Now
68 °F

Sunny.


Feels Like: 68 °F
Forecast: 53 / 80 °F
Wind: 7 mph from West

Location: Fresno Air Terminal


UV Index: 5 (Moderate)

Visibility: 10 mi


Pressure: 30.08 "Hg

Humidity: 38%

Dew point: 41 °F

Location of FresnoLocation

Historic Weather in Fresno

°F

Fresno temperature yesterday

Maximum temperature yesterday: 75 °F (at 2:53 PM)
Minimum temperature yesterday: 50 °F (at 5:53 AM)
Average temperature yesterday: 62 °F

Past Weeks' High & Low Weather Summary

 TemperatureHumidityPressure
High89 °F (Apr 9, 2:53 PM)83% (Apr 13, 5:53 AM)30.11 "Hg (Apr 13, 5:53 AM)
Low50 °F (Apr 23, 5:53 AM)7% (Apr 19, 5:53 PM)29.73 "Hg (Apr 17, 6:53 PM)
Average71 °F43%29.93 "Hg
* Reported Apr 9 9:53 AM — Apr 24 9:53 AM, Fresno, Weather by CustomWeather, © 2014

Note: Actual official high and low records may vary slightly from our data, if they occured in-between our weather recording intervals... More about our weather records

Advertising

Historic Weather Conditions — Data for Previous 24 hours

 ConditionsComfort  
Time TempWeatherWind HumidityBarometerVisibility
9:53 AM
Apr 24
64 °FSunny.3 mph43%30.07 "Hg10 mi
8:53 AM61 °FSunny.No wind50%30.08 "Hg10 mi
7:53 AM56 °FSunny.3 mph62%30.06 "Hg10 mi
6:53 AM53 °FClear.No wind72%30.05 "Hg10 mi
5:53 AM52 °FClear.6 mph75%30.04 "Hg10 mi
4:53 AM54 °FClear.7 mph69%30.03 "Hg10 mi
3:53 AM56 °FClear.9 mph65%30.03 "Hg10 mi
2:53 AM57 °FClear.8 mph60%30.03 "Hg10 mi
1:53 AM59 °FClear.12 mph58%30.04 "Hg10 mi
12:53 AM60 °FClear.13 mph53%30.04 "Hg10 mi
11:53 PM
Apr 23
62 °FClear.14 mph44%30.04 "Hg10 mi
10:53 PM63 °FClear.15 mph40%30.03 "Hg10 mi
9:53 PM65 °FClear.9 mph33%30.04 "Hg10 mi
8:53 PM67 °FPassing clouds.13 mph30%30.03 "Hg10 mi
7:53 PM69 °FScattered clouds.12 mph25%30.01 "Hg10 mi
6:53 PM71 °FScattered clouds.15 mph22%30.00 "Hg10 mi
5:53 PM74 °FScattered clouds.17 mph17%30.00 "Hg10 mi
4:53 PM75 °FScattered clouds.10 mph17%30.01 "Hg10 mi
3:53 PM74 °FBroken clouds.15 mph21%30.02 "Hg10 mi
2:53 PM75 °FScattered clouds.12 mph19%30.04 "Hg10 mi
1:53 PM72 °FScattered clouds.10 mph24%30.05 "Hg10 mi
12:53 PM68 °FScattered clouds.3 mph30%30.06 "Hg10 mi
11:53 AM65 °FScattered clouds.8 mph36%30.09 "Hg10 mi
Weather by CustomWeather, © 2014

See weather overview